Location: Bishop�s Knoyle
(51.0728°N, 2.1714°W)
Time: 05:10:21
(UTC+00:00)

CENTAUR R/B - Pass Details

Date: 17 January 2021
Orbit: 742 x 1446 km, 63.5° (Epoch: 02 March)

Event Time Altitude Azimuth Distance (km) Brightness Sun altitude
Rises 17:04:51 0° 314° (NW) 4,171 6.1 -5.0°
Reaches altitude 10° 17:07:41 10° 308° (NW) 3,291 5.6 -5.4°
Maximum altitude 17:15:06 40° 243° (WSW) 1,937 4.8 -6.4°
Drops below altitude 10° 17:23:07 10° 178° (S) 3,548 5.7 -7.6°
Sets 17:26:19 0° 171° (S) 4,527 6.2 -8.0°
